Location: Mahannah Oil Field
(37.4664°N, 96.6003°W)
Time: 01:42:26
(UTC+00:00)

A-11 Canister half - Pass Details

Date: 28 January 2021
Orbit: 1524 x 1684 km, 47.3° (Epoch: 25 February)

Event Time Altitude Azimuth Distance (km) Brightness Sun altitude
Rises 16:47:58 0° 177° (S) 4,670 12.5 28.6°
Reaches altitude 10° 16:52:38 10° 157° (SSE) 3,681 12.7 29.1°
Maximum altitude 16:57:36 16° 123° (ESE) 3,246 12.0 29.6°
Drops below altitude 10° 17:02:33 10° 90° (E) 3,695 11.4 30.0°
Sets 17:07:12 0° 71° (ENE) 4,697 11.6 30.4°
